Cyclone, PA

6:55 AM EST on February 13, 2016 (GMT -0500)
Bradford Regional

Weather History for KBFD - August, 2012

Change the Weather History Date:

Thursday, August 9, 2012

  Actual Average Record
Temperature  
Mean Temperature 68 °F 65 °F  
Max Temperature 81 °F 77 °F 91 °F (2001)
Min Temperature 57 °F 53 °F 39 °F (1989)
Degree Days  
Heating Degree Days 0 1  
Month to date heating degree days 1  
Since 1 June heating degree days 210  
Since 1 July heating degree days 65  
Cooling Degree Days 4 2  
Month to date cooling degree days 18  
Year to date cooling degree days 142  
Since 1 June cooling degree days 132  
Growing Degree Days 18 (Base 50)    
Moisture  
Dew Point 60 °F    
Average Humidity 83    
Maximum Humidity 94    
Minimum Humidity 56    
Precipitation  
Precipitation 0.99 in 0.14 in 1.11 in (1998)
Month to date precipitation 1.22  
Year to date precipitation 27.06  
Sea Level Pressure  
Sea Level Pressure 29.94 in    
Wind  
Wind Speed 3 mph (SSE)    
Max Wind Speed 18 mph    
Max Gust Speed 24 mph    
Visibility 4 miles    
Events Fog , Rain    
T = Trace of Precipitation, MM = Missing Value Source: NWS Daily Summary

Daily Weather History Graph

Daily Weather History Graph

Search for Another Location

Airport or City:

Trip Planner

Search our weather history database for the weather conditions in past years. The results will help you decide how hot, cold, wet, or windy it might be!

Date:

Astronomy

Aug. 09, 2012 Rise Set
Actual Time 6:17 AM EDT 8:22 PM EDT
Civil Twilight 5:46 AM EDT 8:52 PM EDT
Nautical Twilight 5:09 AM EDT 9:29 PM EDT
Astronomical Twilight 4:28 AM EDT 10:10 PM EDT
Moon No Moon Rise 2:04 PM EDT (8/9)
Length of Visible Light 15h 06m
Length of Day
14h 05m
Waning Gibbous, 51% of the Moon is Illuminated
Aug 9
Waning Gibbous
Aug 9
Last Quarter
Aug 17
New
Aug 24
First Quarter
Aug 31
Full

Hourly Weather History & Observations

Time (EDT) Temp. Heat Index Dew Point Humidity Pressure Visibility Wind Dir Wind Speed Gust Speed Precip Events Conditions
12:53 AM 62.1 °F - 59.0 °F 90% 29.96 in 6.0 mi SE 3.5 mph - N/A   Overcast
1:53 AM 64.0 °F - 61.0 °F 90% 29.95 in 9.0 mi Calm Calm - N/A   Overcast
2:53 AM 63.0 °F - 60.1 °F 90% 29.94 in 6.0 mi SSE 3.5 mph - N/A   Scattered Clouds
3:53 AM 62.1 °F - 57.9 °F 86% 29.93 in 5.0 mi Calm Calm - N/A   Clear
4:04 AM 61.0 °F - 57.9 °F 90% 29.98 in 1.5 mi Calm Calm - N/A   Clear
4:07 AM 60.1 °F - 57.9 °F 93% 29.98 in 0.8 mi Calm Calm - N/A   Mist
4:20 AM 60.1 °F - 57.0 °F 90% 29.98 in 1.5 mi Calm Calm - N/A   Partly Cloudy
4:23 AM 61.0 °F - 57.0 °F 87% 29.98 in 3.0 mi Calm Calm - N/A   Partly Cloudy
4:34 AM 60.1 °F - 57.0 °F 90% 29.98 in 1.8 mi Calm Calm - N/A   Partly Cloudy
4:44 AM 59.0 °F - 55.9 °F 90% 29.98 in 4.0 mi Calm Calm - N/A   Clear
4:53 AM 60.1 °F - 57.0 °F 90% 29.93 in 6.0 mi Calm Calm - N/A   Clear
5:22 AM 57.9 °F - 55.0 °F 90% 29.98 in 1.5 mi SE 3.5 mph - N/A   Partly Cloudy
5:29 AM 57.0 °F - 55.0 °F 93% 29.97 in 0.8 mi SE 4.6 mph - N/A   Mist
5:32 AM 57.9 °F - 55.0 °F 90% 29.98 in 1.2 mi ESE 5.8 mph - N/A   Scattered Clouds
5:40 AM 57.9 °F - 55.0 °F 90% 29.98 in 3.0 mi ESE 3.5 mph - N/A   Scattered Clouds
5:48 AM 57.2 °F - 55.4 °F 94% 29.98 in 1.8 mi ESE 4.6 mph - N/A   Scattered Clouds
5:50 AM 57.2 °F - 55.4 °F 94% 29.98 in 1.0 mi ESE 4.6 mph - N/A   Mist
5:53 AM 57.0 °F - 55.0 °F 93% 29.95 in 0.5 mi ESE 4.6 mph - N/A Fog Fog
6:03 AM 57.9 °F - 55.0 °F 90% 29.98 in 0.2 mi Calm Calm - N/A Fog Fog
6:11 AM 57.9 °F - 55.0 °F 90% 29.98 in 0.5 mi SE 3.5 mph - N/A Fog Fog
6:22 AM 57.0 °F - 55.0 °F 93% 29.98 in 1.2 mi Calm Calm - N/A   Scattered Clouds
6:29 AM 57.0 °F - 54.0 °F 89% 29.99 in 3.0 mi Calm Calm - N/A   Partly Cloudy
6:53 AM 57.9 °F - 55.0 °F 90% 29.96 in 6.0 mi Calm Calm - N/A   Clear
7:53 AM 64.0 °F - 61.0 °F 90% 29.97 in 5.0 mi SSW 3.5 mph - N/A   Scattered Clouds
8:01 AM 64.9 °F - 61.0 °F 87% 30.01 in 3.0 mi Calm Calm - N/A   Mostly Cloudy
8:49 AM 66.2 °F - 62.6 °F 88% 30.00 in 6.0 mi Variable 4.6 mph - N/A   Scattered Clouds
8:53 AM 66.9 °F - 62.1 °F 84% 29.96 in 7.0 mi South 3.5 mph - N/A   Partly Cloudy
9:53 AM 70.0 °F - 62.1 °F 76% 29.95 in 10.0 mi WSW 3.5 mph - N/A   Mostly Cloudy
10:53 AM 75.0 °F - 62.1 °F 64% 29.94 in 10.0 mi Calm Calm - N/A   Clear
11:53 AM 77.0 °F - 63.0 °F 62% 29.94 in 10.0 mi West 6.9 mph - N/A   Mostly Cloudy
12:51 PM 71.6 °F - 62.6 °F 73% 29.98 in 1.8 mi Calm Calm - 0.04 in Rain Heavy Rain
12:53 PM 71.1 °F - 64.0 °F 78% 29.94 in 1.5 mi SSE 3.5 mph - 0.05 in Rain Heavy Rain
1:01 PM 69.1 °F - 64.9 °F 87% 29.98 in 3.0 mi ESE 3.5 mph - 0.01 in Rain Light Rain
1:53 PM 75.9 °F - 66.0 °F 71% 29.91 in 10.0 mi Calm Calm - 0.01 in   Partly Cloudy
2:53 PM 78.1 °F - 63.0 °F 60% 29.89 in 10.0 mi Calm Calm - N/A   Partly Cloudy
3:53 PM 78.1 °F - 64.0 °F 62% 29.87 in 10.0 mi South 9.2 mph - N/A   Partly Cloudy
4:53 PM 80.1 °F 81.7 °F 64.0 °F 58% 29.85 in 10.0 mi Variable 5.8 mph - N/A   Partly Cloudy
5:53 PM 80.1 °F 81.5 °F 63.0 °F 56% 29.84 in 10.0 mi South 6.9 mph - N/A   Scattered Clouds
6:53 PM 79.0 °F - 62.1 °F 56% 29.81 in 10.0 mi South 4.6 mph - N/A   Mostly Cloudy
7:37 PM 70.0 °F - 61.0 °F 73% 29.90 in 9.0 mi ESE 4.6 mph - 0.01 in Rain Light Rain
7:48 PM 69.8 °F - 62.6 °F 78% 29.90 in 2.5 mi SE 8.1 mph - 0.06 in Rain Light Rain
7:53 PM 69.1 °F - 62.1 °F 78% 29.86 in 1.8 mi SSE 9.2 mph - 0.16 in Rain Heavy Rain
8:03 PM 66.9 °F - 63.0 °F 87% 29.91 in 0.8 mi Variable 3.5 mph - 0.40 in Rain Heavy Rain
8:14 PM 66.0 °F - 63.0 °F 90% 29.90 in 2.0 mi East 3.5 mph - 0.49 in Rain Rain
8:22 PM 66.9 °F - 63.0 °F 87% 29.89 in 5.0 mi Calm Calm - 0.49 in Rain Light Rain
8:49 PM 66.2 °F - 62.6 °F 88% 29.95 in 2.5 mi SW 9.2 mph - 0.57 in Rain Rain
8:53 PM 66.9 °F - 62.1 °F 84% 29.91 in 1.5 mi WNW 18.4 mph 24.2 mph 0.66 in Rain Heavy Rain
8:59 PM 66.0 °F - 62.1 °F 87% 29.93 in 2.0 mi NW 12.7 mph 24.2 mph 0.03 in Rain Heavy Rain
9:08 PM 64.9 °F - 60.1 °F 84% 29.92 in 3.0 mi NW 4.6 mph - 0.06 in Rain Heavy Rain
9:53 PM 64.0 °F - 61.0 °F 90% 29.90 in 7.0 mi East 4.6 mph - 0.07 in   Clear
10:53 PM 64.0 °F - 61.0 °F 90% 29.88 in 6.0 mi SE 4.6 mph - N/A   Scattered Clouds
11:53 PM 63.0 °F - 60.1 °F 90% 29.84 in 6.0 mi East 6.9 mph - 0.04 in Rain Light Rain